Dewpoint
71 72 72 72 72 72 72 72 71 71 71 71 70 70 70 70 70 70 70 69 69 69 68 68 68 68 68 68 67 67 66 65 65 65 64 64 64 64 64 64 64 64 64 64 65 66 66 66 64 63 63 59 55 55 58 60 61 61 61 61 61 62 63 64 65 65 65 65 65 65 65 65 65 65 65 66 66 66 67 67 68 68 69 69 69 68 68 69 69 69 69 69 68 68 67 67 66 66 65 65 65 65 65
71 72 72 72 71 71 71 71 71 71 71 71 70 70 70 70 70 70 70 69 69 69 68 68 68 68 68 68 68 67 66 66 65 65 64 64 64 64 64 64 64 64 65 65 66 66 66 65 64 62 62 59 55 55 57 60 61 61 61 61 62 63 64 64 64 64 64 64 64 64 64 64 65 65 65 65 65 66 66 66 66 67 67 68 68 68 68 68 68 69 69 68 68 67 66 66 65 65 65 65 65 65 65
72 72 72 71 71 71 71 71 71 71 71 71 70 70 70 70 70 70 69 69 69 69 69 68 68 68 68 68 68 68 67 66 65 65 64 64 64 64 64 64 65 65 65 66 66 66 66 65 63 61 60 56 56 57 60 61 61 62 62 63 63 63 64 64 64 64 64 64 64 64 64 64 64 64 65 65 65 65 65 65 65 65 66 66 67 67 68 68 68 68 68 68 68 67 66 66 65 65 65 65 65 65 65
72 72 72 71 71 71 71 71 71 71 71 71 70 70 70 70 70 70 69 69 69 69 69 68 68 68 68 68 68 68 67 66 65 65 64 64 64 64 64 64 65 65 66 66 67 67 66 64 63 60 56 55 57 60 61 61 62 62 62 63 64 64 66 65 65 64 64 64 64 64 64 64 64 64 64 65 65 64 64 64 64 64 64 65 66 66 67 67 67 67 68 68 68 67 66 65 65 64 64 64 65 65 65
72 72 71 71 71 71 71 71 71 71 71 71 70 70 70 70 70 70 69 69 69 69 68 68 68 68 68 68 68 68 67 66 66 65 64 64 65 65 64 65 65 65 66 66 67 66 64 64 62 59 55 55 57 60 60 61 62 62 62 63 64 65 66 65 65 64 64 64 64 64 64 64 64 64 64 64 64 64 64 64 64 64 64 64 64 65 66 66 66 67 67 67 67 67 66 65 65 64 64 64 64 65 65
72 72 72 72 71 71 71 71 71 71 70 70 70 70 70 70 70 69 69 69 69 69 68 68 68 68 68 69 69 68 68 67 66 65 65 65 65 65 65 65 65 66 66 67 67 66 65 63 62 59 55 54 56 60 60 61 61 61 61 62 64 65 64 64 64 64 64 63 63 63 64 64 64 64 64 64 64 64 63 63 63 63 63 63 64 64 65 65 66 66 66 67 67 66 66 65 64 64 64 64 64 65 65
72 72 72 72 72 71 71 71 71 71 70 70 70 70 70 70 70 69 69 69 69 69 68 68 68 68 69 69 69 68 68 67 66 66 65 65 65 65 65 65 65 66 66 67 67 66 65 63 61 60 55 54 55 58 60 61 61 61 62 63 64 64 64 63 63 63 63 63 62 62 62 63 63 64 64 63 63 63 63 63 63 63 63 63 63 64 64 64 65 65 65 65 66 66 65 65 65 64 64 64 64 65 65
72 72 72 72 72 71 71 71 71 71 70 70 70 70 70 70 69 69 69 69 69 69 68 68 68 68 69 69 69 68 68 67 67 66 66 66 65 65 65 66 66 66 67 67 67 66 65 63 62 60 56 55 56 59 61 62 62 63 63 63 63 63 63 62 62 62 62 62 62 62 62 62 62 63 62 63 62 62 62 62 63 63 64 64 64 64 64 64 64 64 64 64 64 65 65 65 65 64 64 64 65 65 65
72 72 72 72 71 71 71 71 71 71 70 70 70 70 70 69 69 69 69 69 69 69 69 68 68 68 69 69 69 68 68 68 67 67 66 66 66 66 66 66 66 66 67 67 67 67 66 64 61 59 56 55 58 61 62 62 63 63 63 63 63 62 62 62 62 62 62 61 62 62 62 63 62 62 62 62 62 62 62 62 62 63 64 65 65 65 65 64 64 64 63 64 64 64 64 64 64 64 64 64 65 65 65
72 72 71 71 71 71 71 71 71 71 71 70 70 70 70 69 69 69 69 69 69 69 69 68 68 68 68 69 69 68 68 68 68 67 67 67 67 67 67 67 67 67 67 67 67 67 66 63 61 59 57 56 59 62 63 62 63 63 63 64 63 62 61 61 62 62 62 62 62 63 63 63 63 62 62 62 61 61 61 61 62 63 64 65 66 66 65 65 64 64 64 63 63 63 64 64 64 64 64 64 64 65 65
72 72 71 71 71 71 71 71 71 71 71 71 70 70 70 70 69 69 69 69 69 69 69 68 68 68 68 68 68 68 68 68 68 68 68 67 67 67 68 68 68 68 68 68 67 67 65 63 60 59 56 56 59 62 62 62 63 63 63 64 64 62 62 62 62 62 62 62 63 63 63 63 63 63 63 62 62 61 61 61 62 63 64 65 66 66 66 65 65 64 64 64 64 63 63 63 64 64 64 64 64 64 64
72 72 71 71 71 71 71 71 71 71 71 71 71 70 70 70 70 70 70 69 69 69 69 69 68 68 68 68 68 68 68 68 68 68 68 68 68 68 68 68 68 68 68 68 67 66 64 61 60 58 56 56 59 61 61 62 62 63 63 64 63 63 62 62 62 62 62 63 63 63 64 63 63 63 63 62 62 62 61 62 63 64 65 65 66 66 66 65 65 64 64 64 64 64 64 64 64 64 64 64 64 64 64
72 72 71 71 70 71 71 71 71 71 71 71 71 71 70 70 70 70 70 69 69 69 69 69 69 68 68 68 68 68 68 69 69 69 69 69 69 69 69 69 68 68 68 68 66 64 62 60 59 58 57 56 58 60 61 62 62 63 64 64 64 63 62 62 62 62 62 63 63 63 64 64 63 63 63 63 62 62 62 63 63 64 65 65 66 66 66 65 65 64 64 64 64 64 64 64 64 64 63 63 63 63 63
72 71 70 70 70 70 70 71 71 71 71 71 71 71 70 70 70 70 70 70 69 69 69 69 69 68 68 68 68 68 69 69 69 69 69 69 69 69 69 69 69 68 68 67 64 62 61 60 59 58 57 56 58 60 62 62 62 63 65 64 64 63 63 62 62 62 62 62 62 63 63 64 64 64 64 63 63 63 63 63 64 64 64 65 65 65 65 65 65 65 64 64 64 64 64 64 64 64 64 63 63 63 63
70 69 69 69 70 70 70 71 71 71 71 71 71 71 70 70 70 70 70 69 69 69 69 69 69 69 68 68 69 69 69 69 69 69 69 70 70 69 69 69 69 68 68 64 63 61 61 60 60 59 57 56 58 60 61 62 63 64 65 64 64 64 63 63 62 62 61 62 62 62 63 64 64 64 64 64 64 63 63 63 64 64 64 64 65 65 65 65 65 65 64 64 64 64 64 64 64 64 64 63 63 63 63
68 67 68 69 70 70 70 71 71 71 71 71 71 71 70 70 70 70 70 69 69 69 69 69 69 69 69 69 69 69 69 69 69 69 69 70 70 69 69 69 68 67 66 63 62 62 61 61 60 59 57 56 58 60 61 62 63 65 66 65 64 64 64 64 63 63 62 62 62 62 63 63 64 64 64 64 64 64 63 63 64 64 64 64 64 64 64 64 65 65 64 64 64 64 64 64 64 64 64 64 63 63 63
66 66 68 69 69 70 70 70 71 71 71 71 71 71 70 70 70 70 70 69 69 69 69 69 69 69 69 69 69 69 67 67 68 69 69 69 69 69 69 69 67 66 63 63 62 62 62 62 61 60 57 56 58 60 61 62 64 65 66 65 65 65 64 64 64 63 63 62 62 62 62 63 63 64 64 64 64 64 64 64 64 64 64 64 64 64 64 64 64 64 64 64 64 64 64 64 64 64 64 64 64 63 63
67 67 68 69 69 69 70 70 70 71 71 71 71 71 71 70 70 70 69 69 69 69 69 69 69 69 69 69 69 67 65 65 65 66 67 68 69 69 68 68 66 64 62 63 63 63 63 63 62 60 57 56 58 60 61 62 64 66 66 66 66 65 65 64 64 64 64 63 63 63 62 62 63 63 64 64 64 64 64 64 64 64 64 64 64 64 64 64 64 64 64 64 64 64 64 64 64 64 64 64 64 64 63
67 68 68 69 69 69 69 70 70 70 71 71 71 71 71 70 70 70 69 69 69 69 69 69 69 69 69 69 67 65 64 64 64 64 64 65 66 66 66 66 65 63 62 63 63 63 63 63 63 61 58 57 58 60 61 63 64 66 66 66 66 65 65 65 65 64 64 64 64 63 63 62 63 63 63 64 64 64 64 64 64 64 64 64 64 64 64 64 64 64 64 64 64 64 64 63 63 63 63 63 63 63 63
68 68 68 69 69 69 69 69 70 70 70 71 70 70 70 70 70 70 70 69 69 69 69 69 69 69 69 68 66 64 64 64 64 64 64 64 64 64 64 65 64 63 63 62 62 63 63 63 63 61 58 57 58 60 61 63 65 66 66 66 66 66 66 66 66 65 65 64 64 64 64 63 63 63 63 64 64 64 64 64 64 64 64 64 64 64 64 64 64 64 64 64 64 64 64 64 63 63 63 63 63 63 63
69 68 68 68 68 69 69 69 69 70 70 70 70 69 69 69 69 70 70 69 69 69 69 69 69 68 68 66 64 64 64 63 64 64 64 64 63 63 64 64 64 64 63 63 63 63 64 63 62 61 58 56 58 60 61 63 65 67 67 66 66 66 66 66 66 66 66 65 65 65 64 64 64 64 64 64 64 64 64 64 64 64 64 64 64 64 64 64 64 64 64 64 64 64 64 64 63 63 63 62 62 63 63
69 68 68 68 68 68 68 68 69 69 69 70 69 68 68 68 69 69 69 68 68 68 68 68 67 67 67 65 64 64 64 63 63 63 64 64 63 64 64 64 64 64 63 63 63 64 63 63 62 60 58 56 57 60 61 64 66 67 67 67 66 66 66 66 66 66 66 66 66 65 65 65 64 64 64 64 64 64 64 64 64 64 64 64 64 64 64 64 64 64 64 64 64 64 64 64 64 63 63 63 62 62 63
69 68 68 67 67 67 67 68 68 68 69 69 68 68 68 68 68 68 67 66 65 65 66 66 66 66 66 65 64 64 64 64 63 62 62 63 63 64 64 64 64 64 63 63 63 63 62 62 61 60 58 56 56 59 61 64 66 67 67 67 67 66 66 66 66 66 67 67 67 66 66 66 65 65 65 64 64 64 64 64 64 64 64 64 64 64 64 64 64 64 64 64 64 64 64 64 64 63 63 63 63 63 63
69 69 68 68 67 67 67 67 67 67 68 68 68 67 67 67 67 67 66 65 65 64 64 64 65 65 65 65 64 64 64 64 63 62 61 62 62 63 63 63 63 63 63 62 62 61 61 60 60 59 57 56 57 58 61 64 66 67 67 67 67 67 66 66 66 67 67 67 67 67 67 67 66 66 66 65 65 65 64 64 64 64 64 64 64 64 64 64 64 64 64 64 64 64 64 64 63 63 63 63 63 63 63
69 68 68 68 67 67 67 66 66 67 67 67 67 67 67 67 67 66 65 65 65 65 65 65 65 65 65 64 64 64 64 64 63 61 59 61 61 61 62 61 61 61 61 60 60 60 60 59 58 58 57 57 57 58 61 63 65 67 67 67 67 67 67 67 67 67 67 67 68 68 68 67 67 67 67 66 66 65 65 65 64 64 64 64 64 65 65 65 65 65 64 64 64 64 64 64 63 63 63 63 63 63 63
68 68 68 67 67 67 67 66 66 66 66 67 66 66 66 66 66 66 65 65 65 65 65 65 65 65 64 64 64 64 63 63 62 61 58 60 60 61 60 60 60 60 60 59 59 59 58 57 57 57 57 57 57 58 61 63 64 66 67 67 67 67 67 66 66 67 67 67 67 67 68 68 68 68 68 67 67 66 66 66 65 65 65 65 65 65 65 65 65 65 65 65 65 65 64 64 64 64 63 63 63 64 64
68 68 67 67 67 67 66 66 66 66 65 66 66 65 65 65 66 65 65 65 65 65 65 65 64 64 64 63 63 63 63 63 62 60 57 58 60 60 60 59 59 59 58 58 58 57 56 56 56 56 56 56 57 58 60 63 64 65 66 66 67 67 67 66 66 66 66 67 67 67 67 67 68 68 68 68 68 68 67 67 66 66 65 65 65 65 65 65 65 65 66 66 65 65 65 65 64 64 64 64 64 64 64
68 67 67 67 67 66 66 66 66 65 65 65 65 65 64 64 65 65 65 64 64 64 64 64 64 64 64 63 62 62 62 61 61 60 58 57 58 59 59 58 58 58 57 57 56 55 55 55 55 55 55 56 56 57 60 62 63 64 64 65 66 67 67 67 66 66 66 66 66 66 66 67 67 68 68 68 69 69 69 68 67 67 66 66 66 66 65 65 65 66 66 66 66 66 66 66 65 65 65 64 64 64 64
68 67 67 66 66 66 66 66 65 65 65 65 65 64 64 64 64 64 64 64 64 64 63 63 64 64 63 63 62 61 60 60 60 59 58 57 57 57 57 57 56 56 55 55 55 54 54 53 53 54 54 55 55 56 58 60 62 63 64 64 65 66 67 67 66 66 66 66 66 66 66 66 66 67 67 68 69 69 69 69 68 68 67 67 67 66 66 66 66 66 66 66 66 66 66 66 66 66 65 65 65 65 64
69 68 67 67 66 66 65 65 65 65 65 64 64 64 64 64 63 63 63 64 63 63 62 62 62 63 62 62 61 60 60 60 59 59 57 57 57 57 56 56 55 55 55 54 54 53 53 52 52 52 53 53 54 55 56 59 61 62 63 63 64 65 66 66 66 66 66 65 65 65 65 66 66 66 67 67 68 69 69 69 69 69 68 68 68 67 67 67 67 67 67 67 67 67 67 67 67 66 66 66 66 65 65
69 68 67 67 66 65 65 65 64 64 64 64 64 64 64 64 62 62 62 63 63 62 61 61 61 61 61 61 60 59 59 59 59 58 57 57 57 57 56 56 55 55 54 54 53 53 52 52 51 51 51 52 52 53 54 58 60 62 62 63 63 64 65 65 66 66 66 66 65 65 65 65 66 66 66 66 67 67 68 69 69 69 69 69 69 68 68 67 67 67 67 67 67 67 67 67 67 67 67 66 66 66 66
69 68 66 66 65 64 64 64 64 63 64 64 64 64 64 63 62 61 60 61 62 61 60 60 60 60 60 60 59 59 58 59 58 57 57 57 57 57 57 56 56 55 54 54 53 52 52 51 51 51 51 50 51 51 52 55 58 61 62 62 63 63 64 64 65 66 66 66 66 66 65 65 65 65 65 65 66 66 67 67 68 68 69 69 69 69 68 68 68 68 68 68 68 68 68 67 67 67 67 67 67 66 66
69 68 66 64 63 63 63 63 63 62 63 63 64 64 64 63 62 60 59 60 61 61 60 59 59 59 59 59 59 58 58 58 58 57 57 57 57 57 57 56 56 55 55 54 53 52 51 51 51 50 50 49 49 50 50 52 56 60 61 62 62 63 63 64 64 65 66 66 66 66 66 65 65 65 65 65 65 65 65 66 66 67 68 68 69 69 69 68 68 68 68 68 68 68 68 68 68 68 67 67 67 67 67
68 68 67 65 63 62 62 62 62 62 62 62 63 63 63 62 61 60 58 60 60 60 60 59 58 58 58 58 58 58 58 58 57 57 56 56 57 57 57 56 56 55 55 54 53 52 51 51 50 50 49 49 48 48 48 49 52 57 60 61 62 62 63 64 64 64 65 65 66 66 66 66 65 65 65 64 64 64 64 64 65 65 66 67 67 68 68 68 68 68 68 68 68 68 68 68 68 68 68 68 67 67 67
68 68 67 67 65 62 61 61 61 61 61 61 62 63 62 61 60 59 58 59 59 59 58 58 57 57 57 57 57 57 57 57 57 56 56 56 56 56 56 56 55 55 55 54 53 52 51 50 50 49 49 48 48 48 47 47 49 52 57 60 61 61 63 63 64 64 64 64 65 66 66 65 65 65 65 65 64 64 64 64 64 64 64 65 65 66 67 67 68 68 68 69 69 69 69 69 69 68 68 68 68 68 67
67 67 67 67 66 65 61 61 60 60 60 60 61 62 62 61 60 59 58 58 58 58 57 57 56 56 56 56 56 56 56 56 56 56 55 55 55 55 54 54 54 54 54 53 52 52 51 50 50 49 49 48 48 48 47 47 47 48 51 56 59 60 61 62 63 63 63 64 64 65 65 65 65 65 65 65 64 64 64 64 64 64 64 64 64 64 65 66 66 67 68 68 69 69 69 69 69 69 69 68 68 68 68
67 67 66 66 66 66 66 63 61 60 60 60 60 61 61 60 60 59 58 58 58 57 57 57 57 57 57 56 56 56 56 56 56 56 55 55 55 55 54 53 52 52 53 52 52 52 51 50 50 49 49 48 48 48 47 47 47 46 47 51 55 58 60 60 61 62 62 63 63 64 64 64 65 65 65 64 64 64 64 64 64 64 64 64 64 64 64 64 65 66 66 67 68 68 69 69 69 69 69 69 69 69 68
66 66 66 66 66 66 67 66 65 63 61 60 60 60 60 60 59 59 58 58 57 57 57 57 58 58 58 57 57 57 57 56 56 56 56 56 55 55 55 54 53 53 52 52 52 52 52 51 51 50 49 49 48 48 48 47 47 46 46 48 51 54 56 57 58 59 60 60 62 62 63 64 64 64 64 64 64 64 64 64 64 64 64 64 64 64 64 64 64 65 65 66 66 67 68 69 69 69 69 69 69 69 69
66 66 66 66 66 66 67 67 67 67 65 62 60 60 60 59 59 58 58 57 57 57 57 57 57 57 57 57 57 57 57 56 56 56 56 55 55 55 55 55 55 54 53 53 52 52 52 52 52 51 51 50 49 49 48 48 47 46 46 46 48 50 53 54 55 56 56 57 59 60 62 63 63 63 64 64 64 64 64 64 64 64 64 64 64 64 64 64 64 65 65 66 66 66 67 67 68 69 69 69 69 69 69
66 66 66 66 66 66 67 67 67 67 67 64 63 61 60 59 58 58 58 57 57 57 57 57 57 57 57 57 56 56 56 56 56 55 55 55 55 55 55 55 55 55 54 54 53 52 52 52 52 52 52 51 51 50 50 49 48 47 46 46 46 47 49 51 52 53 53 54 55 57 60 61 62 62 63 63 63 63 64 64 64 64 64 64 64 64 64 64 65 65 65 65 66 66 66 67 67 68 68 69 69 69 69
66 66 66 66 66 66 66 66 67 67 67 66 66 64 61 59 58 58 57 57 57 57 57 57 57 57 57 57 56 56 56 56 55 55 55 55 55 55 55 55 55 55 54 54 54 53 52 52 52 52 52 52 52 51 51 50 49 48 48 47 46 46 47 49 51 51 51 51 52 54 56 59 60 61 62 62 62 63 63 64 64 64 64 64 64 64 64 64 65 65 65 65 66 66 66 66 67 67 67 68 68 68 68
65 65 65 65 66 66 66 66 66 67 67 67 67 66 64 60 59 58 57 57 56 57 57 57 57 57 57 56 56 56 56 55 55 55 55 55 54 54 54 54 54 54 54 55 54 53 52 52 52 52 52 52 52 52 51 51 50 50 49 48 47 47 47 48 49 49 49 49 50 51 53 57 59 60 61 61 62 62 62 63 63 64 64 64 64 64 64 64 65 65 65 65 66 66 66 66 66 67 67 67 67 67 68
65 65 65 65 66 66 66 66 66 66 67 66 67 66 66 63 61 59 57 57 56 56 57 57 57 57 56 56 56 56 56 55 55 55 55 54 54 54 53 53 53 53 54 54 53 53 53 53 53 53 53 53 52 52 52 51 51 51 50 49 48 48 47 47 47 47 48 48 49 50 51 55 57 60 60 60 61 61 62 62 62 63 63 64 64 64 64 64 65 65 65 65 65 66 66 66 66 66 67 67 67 67 67
65 65 65 65 65 66 66 66 66 66 66 66 66 66 66 65 64 62 59 57 57 56 56 57 57 56 56 56 56 56 55 55 55 55 55 55 54 54 53 53 53 53 53 53 53 53 53 53 54 54 54 53 53 52 52 51 51 51 51 50 49 48 47 47 47 47 47 48 49 49 51 52 55 57 60 60 60 61 61 61 61 62 63 63 64 64 64 64 65 65 65 65 65 65 66 66 66 66 66 67 67 67 67
65 65 65 65 65 65 65 66 66 66 66 66 66 65 65 65 65 64 62 59 58 57 56 57 57 57 56 56 56 56 56 55 55 55 55 55 54 54 53 53 53 52 52 52 53 53 53 54 54 54 54 54 53 53 52 52 52 51 51 50 50 49 48 48 48 48 48 48 49 49 50 51 53 55 57 58 59 60 60 60 61 61 62 63 63 64 64 64 64 65 65 65 65 66 66 66 66 66 67 67 67 67 68
65 65 65 65 65 65 65 65 66 66 66 66 65 65 65 65 65 65 64 62 60 59 58 59 59 58 57 57 56 56 56 56 55 55 55 55 54 54 54 53 53 52 52 52 52 53 53 54 54 54 54 54 54 53 53 53 53 52 51 51 50 50 49 49 49 48 48 49 49 50 50 51 51 53 55 56 57 57 58 59 60 61 61 62 63 63 64 64 64 65 65 65 65 66 66 66 66 67 67 67 67 67 68
65 65 65 64 64 65 65 65 65 65 65 65 65 65 65 65 65 65 65 64 62 61 60 60 60 59 58 58 57 56 56 55 55 55 55 54 54 54 54 53 53 53 52 52 52 52 53 53 54 54 54 54 54 54 54 54 53 52 51 51 51 50 50 50 49 49 49 49 50 50 50 50 51 51 52 54 55 55 56 57 59 60 61 61 62 63 63 64 64 64 65 65 65 66 66 66 67 67 67 67 67 67 67
66 65 65 65 64 64 65 65 65 65 65 65 65 64 64 64 64 65 65 64 64 62 61 60 60 59 58 58 57 56 55 55 54 54 54 53 53 53 54 54 53 53 54 53 53 53 54 53 53 53 53 54 54 54 53 53 53 53 52 52 51 50 50 50 50 49 49 50 50 50 50 50 50 50 51 52 53 54 55 55 57 59 60 60 61 62 62 63 63 64 64 65 65 66 66 67 67 67 67 67 67 67 67
66 66 65 65 65 65 64 65 65 65 65 65 64 64 64 64 64 64 64 64 64 63 62 61 60 60 58 58 57 56 55 55 54 54 53 53 52 52 53 53 54 54 54 54 54 54 55 53 53 53 53 53 53 53 53 53 53 52 52 52 51 51 50 50 49 49 50 50 50 50 50 50 50 50 50 51 52 53 54 55 55 57 58 59 60 61 62 62 62 63 64 64 65 66 66 67 67 67 67 67 67 67 67
66 66 65 65 65 65 65 65 65 65 65 65 65 64 64 64 64 64 64 64 63 63 62 62 62 61 59 58 57 57 57 56 55 55 54 53 52 52 51 52 52 53 53 54 54 54 54 53 53 52 52 52 52 52 52 52 52 52 52 52 51 51 50 49 49 49 49 49 49 50 50 50 50 50 51 51 52 53 54 55 55 56 57 58 59 60 60 61 61 62 63 64 64 65 66 66 67 67 67 67 67 67 66
66 65 65 65 65 65 65 65 65 65 65 65 65 65 64 64 64 64 64 64 63 62 62 62 62 62 61 60 59 59 59 58 57 56 54 53 52 52 51 51 51 51 51 51 52 53 54 53 53 53 52 52 52 52 51 52 52 51 51 51 51 51 50 50 50 49 49 49 49 50 50 50 50 51 51 52 53 54 55 55 56 56 57 57 57 58 58 58 60 61 62 63 64 64 65 66 66 67 67 67 67 66 66
66 65 64 64 64 64 65 65 65 65 65 65 65 65 64 64 64 64 64 64 63 62 62 62 62 62 62 62 61 60 60 59 59 57 55 54 54 53 52 51 50 49 48 48 48 50 51 51 52 52 52 52 51 51 51 51 51 51 51 51 51 51 51 51 51 50 50 50 50 50 50 51 51 51 52 53 54 54 55 55 56 56 57 57 57 57 57 57 57 58 60 62 63 64 64 65 65 66 66 66 66 66 65
66 66 65 64 64 64 64 65 65 65 65 65 64 64 64 64 64 64 64 63 63 62 62 62 61 61 61 61 60 60 60 59 59 58 57 55 55 54 53 52 51 49 48 46 45 45 46 47 48 50 51 51 51 51 50 50 50 50 50 50 51 51 51 51 51 52 52 52 51 51 51 51 52 52 53 54 55 55 55 56 56 56 56 57 57 57 57 56 56 56 57 59 61 63 64 64 64 65 65 66 65 65 64
65 65 65 65 64 64 64 64 64 64 65 64 64 64 64 64 64 64 63 63 63 62 62 61 61 60 60 60 60 60 59 59 58 58 57 56 55 54 53 52 51 50 49 46 45 44 42 42 44 45 48 49 50 50 50 49 49 49 49 49 49 50 51 51 52 53 53 53 53 53 53 53 53 54 54 55 55 55 56 56 56 56 56 56 57 57 57 57 56 55 55 56 57 59 61 63 64 64 64 65 65 64 64
64 64 64 65 65 64 64 64 64 64 64 64 64 64 64 64 63 63 63 63 63 62 62 61 61 60 60 59 59 59 58 58 58 57 57 57 56 55 54 53 52 51 49 48 46 45 44 42 41 41 43 46 47 48 49 49 49 49 50 49 49 49 49 51 52 53 54 54 55 55 55 55 55 55 55 55 55 56 56 56 56 55 55 55 56 56 56 56 55 55 56 56 56 56 57 61 63 64 64 64 64 64 64
64 64 64 64 64 64 64 63 63 64 64 64 64 64 64 63 63 63 63 63 62 62 62 61 60 60 60 59 58 58 58 57 57 57 56 56 56 55 54 53 52 51 50 48 47 46 44 42 41 40 41 44 45 45 46 47 48 49 50 50 49 49 49 50 51 53 54 55 55 55 55 55 55 55 55 55 56 56 56 56 55 55 55 55 55 55 55 55 55 55 56 56 55 55 56 60 61 63 64 64 64 63 63
64 64 64 64 64 63 63 63 63 63 63 63 63 63 63 63 62 62 62 62 62 62 62 61 61 60 60 59 59 58 58 57 57 57 57 56 55 55 55 54 53 52 51 49 47 46 44 43 42 41 41 45 47 48 48 50 51 51 52 52 51 52 53 54 55 56 55 55 55 55 55 55 55 55 56 56 56 56 56 55 55 55 55 55 55 55 55 55 55 55 56 55 55 55 55 58 60 62 63 63 63 63 62
63 63 63 63 63 63 63 63 63 63 63 63 63 63 63 62 62 62 62 61 62 62 62 61 61 61 60 60 60 59 59 58 58 58 58 57 56 55 55 55 55 54 53 52 50 48 46 46 45 44 43 46 50 54 57 58 58 58 57 57 58 58 59 59 60 59 59 58 57 56 55 56 55 55 55 55 55 55 55 55 56 56 56 56 56 57 57 56 56 56 56 56 56 56 56 59 61 62 63 63 62 62 62
63 63 63 63 63 63 63 63 63 63 63 63 63 63 63 63 62 62 62 62 62 61 61 61 61 61 61 60 60 60 59 59 58 58 58 58 58 57 55 55 55 55 55 54 53 51 51 49 47 46 46 46 49 52 56 57 57 57 58 58 59 59 59 59 59 59 58 58 58 57 57 57 56 55 55 55 55 55 55 56 56 57 57 57 58 58 57 56 56 56 56 55 55 56 57 59 61 62 62 62 62 61 61
63 63 63 63 63 63 63 63 63 63 63 63 63 63 63 63 62 62 62 62 62 62 62 61 61 61 61 61 60 60 60 59 59 59 59 58 58 57 57 56 55 55 55 55 55 54 54 52 51 50 49 48 47 48 51 54 56 57 57 57 58 58 58 58 57 57 57 56 56 56 56 56 56 56 56 56 56 56 56 57 57 58 58 58 59 58 58 57 56 56 56 55 56 57 58 59 60 61 62 61 61 61 61
63 63 63 63 63 63 63 64 64 64 64 63 63 64 63 63 63 63 63 63 62 62 62 62 62 61 61 61 61 60 60 60 59 59 59 58 58 57 57 56 56 55 55 55 55 55 54 54 53 53 51 50 49 48 48 50 53 55 55 56 56 56 56 56 56 56 56 55 55 55 55 55 56 56 58 58 58 57 57 57 58 59 59 59 59 59 58 57 57 56 56 56 56 57 57 58 60 61 61 61 61 60 60